Bluefield, WV

2:18 AM EST on November 19, 2019 (GMT -0500)
Mercer County

Weather History for KBLF - October, 2019

Change the Weather History Date:

Sunday, October 20, 2019

  Actual Average Record
Temperature  
Mean Temperature 51 °F 55 °F  
Max Temperature 56 °F 65 °F 81 °F (1924)
Min Temperature 45 °F 46 °F 20 °F (1925)
Degree Days  
Heating Degree Days 14 10  
Month to date heating degree days 171 159  
Since 1 July heating degree days 199 238  
Cooling Degree Days 0 0  
Month to date cooling degree days 32 16  
Year to date cooling degree days 748 848  
Moisture  
Dew Point 48 °F    
Average Humidity 97    
Maximum Humidity 100    
Minimum Humidity 93    
Precipitation  
Precipitation 0.98 in 0.07 in 2.13 in (1961)
Month to date precipitation 3.90 1.62  
Year to date precipitation 32.43 33.15  
Snow  
Snow 0.00 in - - ()
Month to date snowfall 0.0  
Since 1 July snowfall 0.0  
Since 1 September snowfall 0.0  
Snow Depth 0.00 in    
Sea Level Pressure  
Sea Level Pressure 29.92 in    
Wind  
Wind Speed 4 mph (WNW)    
Max Wind Speed 10 mph    
Max Gust Speed 16 mph    
Visibility 4 miles    
Events Fog , Rain    
T = Trace of Precipitation, MM = Missing Value Source: NWS Daily Summary

Daily Weather History Graph

Daily Weather History Graph

Search for Another Location

Airport or City:

Astronomy

Oct. 20, 2019 Rise Set
Actual Time 7:37 AM EDT 6:41 PM EDT
Civil Twilight 7:10 AM EDT 7:07 PM EDT
Nautical Twilight 6:40 AM EDT 7:38 PM EDT
Astronomical Twilight 6:10 AM EDT 8:08 PM EDT
Moon 11:53 PM EDT (10/20) 1:58 PM EDT (10/20)
Length of Visible Light 11h 57m
Length of Day
11h 04m
Waning Gibbous, 59% of the Moon is Illuminated
Oct 20
Waning Gibbous
Oct 21
Last Quarter
Oct 27
New
Nov 4
First Quarter
Nov 12
Full

Hourly Weather History & Observations

Time (EDT) Temp. Windchill Dew Point Humidity Pressure Visibility Wind Dir Wind Speed Gust Speed Precip Events Conditions
12:28 AM 45.0 °F 43.5 °F 45.0 °F 100% 29.94 in 7.0 mi Variable 3.5 mph - 0.03 in Rain Light Rain
12:52 AM 45.0 °F 40.1 °F 45.0 °F 100% 29.90 in 5.0 mi SE 9.2 mph 16.1 mph 0.09 in Rain Heavy Rain
1:52 AM 45.0 °F 42.6 °F 45.0 °F 100% 29.88 in 8.0 mi Variable 4.6 mph - 0.12 in Rain Light Rain
2:31 AM 45.0 °F 40.6 °F 45.0 °F 100% 29.90 in 3.0 mi ENE 8.1 mph - 0.13 in Rain Heavy Rain
2:52 AM 45.0 °F 41.2 °F 45.0 °F 100% 29.86 in 3.0 mi ENE 6.9 mph - 0.28 in Rain Heavy Rain
3:19 AM 45.0 °F 41.2 °F 45.0 °F 100% 29.87 in 4.0 mi East 6.9 mph - 0.14 in Rain Heavy Rain
3:30 AM 45.0 °F 41.8 °F 45.0 °F 100% 29.87 in 1.8 mi ENE 5.8 mph - 0.21 in Rain Heavy Rain
3:37 AM 45.0 °F 40.6 °F 45.0 °F 100% 29.87 in 2.0 mi East 8.1 mph - 0.29 in Rain Heavy Rain
3:45 AM 45.0 °F 41.8 °F 45.0 °F 100% 29.87 in 3.0 mi Variable 5.8 mph - 0.34 in Rain Heavy Rain
3:49 AM 44.6 °F 40.7 °F 44.6 °F 100% 29.87 in 2.5 mi East 6.9 mph - 0.35 in Rain Heavy Rain
3:52 AM 45.0 °F 41.8 °F 45.0 °F 100% 29.83 in 2.0 mi East 5.8 mph - 0.36 in Rain Rain
3:58 AM 45.0 °F 41.8 °F 45.0 °F 100% 29.87 in 1.5 mi Variable 5.8 mph - 0.02 in Rain Rain
4:07 AM 45.0 °F 41.2 °F 45.0 °F 100% 29.87 in 2.0 mi Variable 6.9 mph - 0.04 in Rain Rain
4:10 AM 45.0 °F 41.2 °F 45.0 °F 100% 29.87 in 1.8 mi ESE 6.9 mph - 0.05 in Rain Rain
4:25 AM 45.0 °F 41.2 °F 45.0 °F 100% 29.87 in 1.0 mi ESE 6.9 mph - 0.07 in Rain Rain
4:34 AM 45.0 °F 41.8 °F 45.0 °F 100% 29.87 in 0.8 mi ESE 5.8 mph - 0.08 in Rain Light Rain
4:50 AM 44.6 °F 40.2 °F 44.6 °F 100% 29.85 in 1.0 mi East 8.1 mph - 0.09 in Rain Light Rain
4:52 AM 45.0 °F 41.2 °F 45.0 °F 100% 29.81 in 0.8 mi East 6.9 mph - 0.09 in Rain Light Rain
5:03 AM 45.0 °F 41.2 °F 45.0 °F 100% 29.85 in 0.5 mi ESE 6.9 mph - 0.00 in Fog , Rain Light Rain
5:19 AM 45.0 °F 41.8 °F 45.0 °F 100% 29.86 in 0.5 mi ESE 5.8 mph - 0.01 in Fog , Rain Light Rain
5:39 AM 45.0 °F 43.5 °F 45.0 °F 100% 29.86 in 1.2 mi Variable 3.5 mph - 0.01 in Rain Light Rain
5:52 AM 45.0 °F - 45.0 °F 100% 29.84 in 1.0 mi Calm Calm - 0.01 in   Mist
6:01 AM 45.0 °F - 45.0 °F 100% 29.87 in 0.8 mi Calm Calm - N/A   Mist
6:06 AM 45.0 °F 43.5 °F 45.0 °F 100% 29.87 in 1.0 mi East 3.5 mph - N/A   Mist
6:10 AM 45.0 °F 43.5 °F 45.0 °F 100% 29.87 in 2.0 mi Variable 3.5 mph - N/A   Overcast
6:19 AM 45.0 °F 43.5 °F 45.0 °F 100% 29.87 in 4.0 mi ENE 3.5 mph - N/A   Overcast
6:37 AM 45.0 °F 43.5 °F 45.0 °F 100% 29.87 in 5.0 mi Variable 3.5 mph - N/A   Overcast
6:52 AM 45.0 °F - 45.0 °F 100% 29.85 in 5.0 mi Calm Calm - N/A   Overcast
7:00 AM 45.0 °F 43.5 °F 45.0 °F 100% 29.87 in 1.8 mi Variable 3.5 mph - N/A   Overcast
7:16 AM 45.0 °F 43.5 °F 45.0 °F 100% 29.87 in 1.0 mi Variable 3.5 mph - N/A   Mist
7:52 AM 45.0 °F 43.5 °F 45.0 °F 100% 29.86 in 0.2 mi East 3.5 mph - N/A Fog Fog
8:32 AM 46.0 °F 44.8 °F 46.0 °F 100% 29.90 in 0.8 mi NNW 3.5 mph - 0.01 in Rain Light Rain
8:40 AM 46.0 °F - 46.0 °F 100% 29.90 in 1.2 mi Calm Calm - 0.02 in Rain Light Rain
8:47 AM 46.4 °F - 46.4 °F 100% 29.91 in 3.0 mi Calm Calm - 0.02 in Rain Light Rain
8:52 AM 46.0 °F 43.9 °F 46.0 °F 100% 29.89 in 8.0 mi NW 4.6 mph - 0.02 in   Overcast
9:43 AM 46.0 °F - 46.0 °F 100% 29.93 in 2.5 mi Calm Calm - 0.01 in Rain Light Rain
9:52 AM 46.9 °F - 46.9 °F 100% 29.91 in 4.0 mi West 3.5 mph - 0.01 in Rain Light Rain
10:16 AM 46.9 °F - 46.9 °F 100% 29.93 in 6.0 mi West 3.5 mph - 0.00 in Rain Light Rain
10:31 AM 46.9 °F - 46.9 °F 100% 29.93 in 2.0 mi Calm Calm - 0.01 in Rain Light Rain
10:38 AM 46.9 °F - 46.9 °F 100% 29.93 in 1.8 mi Calm Calm - 0.02 in Rain Light Rain
10:52 AM 48.0 °F - 48.0 °F 100% 29.91 in 1.5 mi Calm Calm - 0.04 in Rain Rain
11:05 AM 48.9 °F - 48.9 °F 100% 29.93 in 2.0 mi Calm Calm - 0.02 in Rain Light Rain
11:09 AM 48.9 °F - 48.9 °F 100% 29.93 in 1.8 mi Calm Calm - 0.02 in Rain Light Rain
11:23 AM 50.0 °F - 50.0 °F 100% 29.94 in 2.5 mi Calm Calm - 0.03 in Rain Light Rain
11:31 AM 50.0 °F - 50.0 °F 100% 29.94 in 3.0 mi Calm Calm - 0.03 in Rain Light Rain
11:41 AM 50.0 °F - 50.0 °F 100% 29.95 in 1.8 mi Calm Calm - 0.04 in Rain Light Rain
11:52 AM 50.0 °F - 50.0 °F 100% 29.93 in 1.5 mi NW 3.5 mph - 0.05 in Rain Light Rain
12:08 PM 51.1 °F - 51.1 °F 100% 29.95 in 2.5 mi West 4.6 mph - 0.01 in Rain Light Rain
12:52 PM 53.1 °F - 53.1 °F 100% 29.93 in 3.0 mi Calm Calm - 0.02 in   Overcast
1:08 PM 54.0 °F - 53.1 °F 97% 29.95 in 7.0 mi Calm Calm - N/A   Overcast
1:22 PM 55.0 °F - 53.1 °F 93% 29.94 in 10.0 mi Calm Calm - N/A   Overcast
1:52 PM 55.0 °F - 54.0 °F 96% 29.91 in 10.0 mi WSW 3.5 mph - N/A   Overcast
2:52 PM 55.0 °F - 54.0 °F 96% 29.91 in 10.0 mi WSW 8.1 mph - N/A   Overcast
3:52 PM 55.0 °F - 55.0 °F 100% 29.92 in 10.0 mi West 4.6 mph - N/A   Overcast
4:05 PM 55.0 °F - 54.0 °F 96% 29.95 in 10.0 mi West 5.8 mph - N/A   Overcast
4:19 PM 55.0 °F - 54.0 °F 96% 29.95 in 10.0 mi West 5.8 mph - N/A   Overcast
4:52 PM 55.0 °F - 54.0 °F 96% 29.94 in 9.0 mi WNW 8.1 mph - N/A   Overcast
5:13 PM 54.0 °F - 54.0 °F 100% 29.97 in 10.0 mi WNW 9.2 mph - N/A   Overcast
5:25 PM 54.0 °F - 54.0 °F 100% 29.98 in 10.0 mi NW 8.1 mph - N/A   Overcast
5:52 PM 53.1 °F - 53.1 °F 100% 29.96 in 2.0 mi WNW 6.9 mph - N/A   Overcast
5:59 PM 53.1 °F - 53.1 °F 100% 29.98 in 1.5 mi West 5.8 mph - N/A   Overcast
6:30 PM 53.1 °F - 53.1 °F 100% 29.99 in 0.8 mi West 5.8 mph - N/A   Mist
6:52 PM 53.1 °F - 53.1 °F 100% 29.97 in 0.8 mi West 5.8 mph - N/A   Mist
7:52 PM 53.1 °F - 53.1 °F 100% 29.99 in 0.2 mi West 8.1 mph - N/A Fog Fog
8:23 PM 52.0 °F - 52.0 °F 100% 30.02 in 1.2 mi WNW 5.8 mph - N/A   Overcast
8:33 PM 52.0 °F - 52.0 °F 100% 30.02 in 2.0 mi WNW 4.6 mph - N/A   Overcast
8:45 PM 52.0 °F - 52.0 °F 100% 30.03 in 1.2 mi West 3.5 mph - N/A   Overcast
8:52 PM 52.0 °F - 52.0 °F 100% 30.01 in 0.8 mi West 3.5 mph - N/A   Mist
9:11 PM 52.0 °F - 52.0 °F 100% 30.03 in 1.2 mi West 3.5 mph - N/A   Overcast
9:17 PM 52.0 °F - 52.0 °F 100% 30.03 in 3.0 mi WNW 5.8 mph - N/A   Overcast
9:52 PM 52.0 °F - 52.0 °F 100% 30.02 in 5.0 mi West 3.5 mph - N/A   Overcast
10:52 PM 52.0 °F - 52.0 °F 100% 30.04 in 8.0 mi Calm Calm - N/A   Overcast
11:52 PM 52.0 °F - 52.0 °F 100% 30.03 in 7.0 mi Calm Calm - N/A   Overcast